{"data":{"norad_id":35493,"intl_designator":"2009-034A","name":"FM-5","alt_names":[],"object_type":"PAYLOAD","status":"ACTIVE","operator":null,"country":"US","launch_date":"2009-06-30","launch_site_code":"TYMSC","launch_vehicle":null,"mission":null,"orbit_class":"UNKNOWN","rcs_meters":10,"size_class":null,"mass_kg":null,"dimensions":null,"purposes":["comms"],"wikipedia_slug":null,"has_3d_model":false,"image_url":null,"decayed_at":null,"tle_current":{"epoch":"2026-09-18T23:38:38.865120Z","epoch_age_seconds":145405,"freshness":"FRESH","line1":"1 35493U 09034A   26261.98517205 -.00000205  00000+0  00000+0 0  9990","line2":"2 35493   0.0362 265.1327 0000751 164.5677 196.7245  1.00273379 47582","mean_motion":1.00273379,"eccentricity":7.51e-5,"inclination_deg":0.0362,"raan_deg":265.1327,"arg_perigee_deg":164.5677,"mean_anomaly_deg":196.7245,"bstar":0,"rev_number":4758,"period_min":1436.0740750544,"perigee_km":35782.981573235,"apogee_km":35789.314648858,"semimajor_km":42164.285111046,"source":"CELESTRAK","updated_at":"2026-09-20T09:00:35.517707Z"}}}